When you browse on this site, cookies collect data to enhance your experience and personalize the content and advertising you see.
Visit our Privacy Policy to learn more. By continuing to use the site, you agree to this use of cookies and data.
  • In Hungary
  • List of Countries
  • For 7 days
  • Water Temperature
  • Satellite Maps
  • Weather Map
  • News
  • Weather Widgets
  • user-avatar
    Login

    Hourly Weather Sidi Bu-l-Abbas

    Today, 20 March, Wednesday

    Time Temperature Precipitation Wind Pressure Humidity
    00:00 +7°C° 0 mm 1 mps 724 mmHg 95%
    01:00 +7°C° 0.1 mm 1 mps 724 mmHg 94%
    02:00 +7°C° 0.1 mm 1 mps 724 mmHg 94%
    03:00 +6°C° 0.1 mm 2 mps 724 mmHg 93%
    04:00 +7°C° 0.1 mm 2 mps 724 mmHg 92%
    05:00 +7°C° 0.1 mm 2 mps 724 mmHg 91%
    06:00 +7°C° 0 mm 2 mps 724 mmHg 89%
    07:00 +8°C° 0.1 mm 2 mps 724 mmHg 83%
    08:00 +9°C° 0.1 mm 3 mps 724 mmHg 77%
    09:00 +9°C° 0.1 mm 3 mps 725 mmHg 70%
    10:00 +10°C° 0.1 mm 4 mps 725 mmHg 65%
    11:00 +10°C° 0.1 mm 5 mps 725 mmHg 59%
    12:00 +12°C° 0.1 mm 5 mps 725 mmHg 53%
    13:00 +11°C° 0.2 mm 6 mps 724 mmHg 54%
    14:00 +11°C° 0.2 mm 7 mps 724 mmHg 55%
    15:00 +11°C° 0.2 mm 7 mps 724 mmHg 56%
    16:00 +10°C° 0.3 mm 7 mps 724 mmHg 61%
    17:00 +9°C° 0.3 mm 6 mps 724 mmHg 65%
    18:00 +9°C° 0.3 mm 6 mps 724 mmHg 70%
    19:00 +7°C° 0 mm 5 mps 724 mmHg 74%
    20:00 +7°C° 0 mm 3 mps 725 mmHg 79%
    21:00 +6°C° 0 mm 2 mps 725 mmHg 84%
    22:00 +6°C° 0 mm 2 mps 725 mmHg 86%
    23:00 +6°C° 0 mm 1 mps 725 mmHg 88%

    Tomorrow, 21 March, Thursday

    Time Temperature Precipitation Wind Pressure Humidity
    00:00 +5°C° 0 mm 1 mps 725 mmHg 90%
    01:00 +4°C° 0 mm 0 mps 724 mmHg 91%
    02:00 +4°C° 0 mm 0 mps 724 mmHg 92%
    03:00 +3°C° 0 mm 0 mps 724 mmHg 92%
    04:00 +3°C° 0 mm 0 mps 724 mmHg 92%
    05:00 +3°C° 0 mm 0 mps 724 mmHg 92%
    06:00 +3°C° 0 mm 0 mps 724 mmHg 92%
    07:00 +6°C° 0 mm 1 mps 724 mmHg 85%
    08:00 +8°C° 0 mm 1 mps 725 mmHg 78%
    09:00 +10°C° 0 mm 1 mps 725 mmHg 71%
    10:00 +11°C° 0 mm 1 mps 725 mmHg 68%
    11:00 +10°C° 0 mm 2 mps 725 mmHg 65%
    12:00 +12°C° 0 mm 2 mps 725 mmHg 61%
    13:00 +11°C° 0.1 mm 3 mps 724 mmHg 61%
    14:00 +12°C° 0.1 mm 4 mps 724 mmHg 61%
    15:00 +12°C° 0.1 mm 5 mps 724 mmHg 60%
    16:00 +10°C° 0.1 mm 5 mps 724 mmHg 66%
    17:00 +10°C° 0.1 mm 5 mps 724 mmHg 72%
    18:00 +9°C° 0.1 mm 5 mps 724 mmHg 78%
    19:00 +8°C° 0 mm 4 mps 724 mmHg 82%
    20:00 +8°C° 0 mm 2 mps 724 mmHg 86%
    21:00 +8°C° 0 mm 1 mps 725 mmHg 91%
    22:00 +8°C° 0 mm 1 mps 725 mmHg 90%
    23:00 +9°C° 0 mm 1 mps 725 mmHg 90%

    Day after tomorrow, 22 March, Friday

    Time Temperature Precipitation Wind Pressure Humidity
    00:00 +9°C° 0 mm 1 mps 725 mmHg 90%
    01:00 +9°C° 0.1 mm 1 mps 725 mmHg 90%
    02:00 +9°C° 0.1 mm 1 mps 724 mmHg 90%
    03:00 +8°C° 0.1 mm 0 mps 724 mmHg 90%
    04:00 +8°C° 0 mm 0 mps 724 mmHg 91%
    05:00 +8°C° 0 mm 0 mps 724 mmHg 91%
    06:00 +8°C° 0 mm 0 mps 724 mmHg 92%
    07:00 +10°C° 0.1 mm 1 mps 724 mmHg 89%
    08:00 +10°C° 0.1 mm 1 mps 725 mmHg 87%
    09:00 +11°C° 0.1 mm 1 mps 725 mmHg 84%
    10:00 +12°C° 0.1 mm 1 mps 725 mmHg 80%
    11:00 +13°C° 0.1 mm 2 mps 725 mmHg 75%
    12:00 +13°C° 0.1 mm 3 mps 725 mmHg 71%
    13:00 +14°C° 0.3 mm 4 mps 724 mmHg 69%
    14:00 +14°C° 0.3 mm 5 mps 724 mmHg 68%
    15:00 +14°C° 0.3 mm 5 mps 724 mmHg 67%
    16:00 +14°C° 0.1 mm 5 mps 724 mmHg 72%
    17:00 +13°C° 0.1 mm 4 mps 724 mmHg 77%
    18:00 +12°C° 0.1 mm 4 mps 724 mmHg 81%
    19:00 +11°C° 0 mm 3 mps 724 mmHg 86%
    20:00 +10°C° 0 mm 2 mps 724 mmHg 90%
    21:00 +10°C° 0 mm 1 mps 725 mmHg 95%
    22:00 +10°C° 0 mm 1 mps 725 mmHg 94%
    23:00 +9°C° 0 mm 0 mps 724 mmHg 94%

    23 March, Saturday

    Time Temperature Precipitation Wind Pressure Humidity
    00:00 +9°C° 0 mm 0 mps 724 mmHg 93%
    01:00 +8°C° 0 mm 0 mps 724 mmHg 94%
    02:00 +9°C° 0 mm 1 mps 724 mmHg 94%
    03:00 +9°C° 0 mm 1 mps 723 mmHg 94%
    04:00 +9°C° 0 mm 1 mps 723 mmHg 94%
    05:00 +9°C° 0 mm 1 mps 723 mmHg 94%
    06:00 +8°C° 0 mm 2 mps 723 mmHg 93%
    07:00 +9°C° 0 mm 2 mps 723 mmHg 85%
    08:00 +12°C° 0 mm 2 mps 723 mmHg 76%
    09:00 +13°C° 0 mm 3 mps 723 mmHg 67%
    10:00 +16°C° 0 mm 3 mps 723 mmHg 60%
    11:00 +17°C° 0 mm 3 mps 723 mmHg 52%
    12:00 +19°C° 0 mm 3 mps 723 mmHg 44%
    13:00 +19°C° 0 mm 4 mps 722 mmHg 42%
    14:00 +20°C° 0 mm 4 mps 722 mmHg 40%
    15:00 +20°C° 0 mm 5 mps 721 mmHg 38%
    16:00 +19°C° 0 mm 5 mps 721 mmHg 45%
    17:00 +17°C° 0 mm 5 mps 720 mmHg 51%
    18:00 +15°C° 0 mm 5 mps 720 mmHg 57%
    19:00 +14°C° 0 mm 4 mps 720 mmHg 63%
    20:00 +13°C° 0 mm 3 mps 721 mmHg 69%
    21:00 +13°C° 0 mm 2 mps 721 mmHg 75%
    22:00 +13°C° 0 mm 2 mps 721 mmHg 71%
    23:00 +13°C° 0 mm 2 mps 721 mmHg 67%

    24 March, Sunday

    Time Temperature Precipitation Wind Pressure Humidity
    00:00 +14°C° 0 mm 2 mps 720 mmHg 63%
    01:00 +14°C° 0 mm 2 mps 720 mmHg 61%
    02:00 +14°C° 0 mm 2 mps 720 mmHg 59%
    03:00 +13°C° 0 mm 3 mps 720 mmHg 57%
    04:00 +13°C° 0 mm 3 mps 720 mmHg 57%
    05:00 +13°C° 0 mm 3 mps 720 mmHg 58%
    06:00 +13°C° 0 mm 4 mps 720 mmHg 58%
    07:00 +14°C° 0 mm 4 mps 720 mmHg 55%
    08:00 +15°C° 0 mm 5 mps 720 mmHg 51%
    09:00 +16°C° 0 mm 6 mps 721 mmHg 48%
    10:00 +17°C° 0.1 mm 5 mps 721 mmHg 47%
    11:00 +18°C° 0.1 mm 3 mps 721 mmHg 46%
    12:00 +19°C° 0.1 mm 2 mps 721 mmHg 45%
    13:00 +19°C° 0.1 mm 3 mps 720 mmHg 47%
    14:00 +18°C° 0.1 mm 3 mps 720 mmHg 50%
    15:00 +18°C° 0.1 mm 4 mps 720 mmHg 52%
    16:00 +17°C° 0 mm 4 mps 720 mmHg 58%
    17:00 +15°C° 0 mm 4 mps 720 mmHg 63%
    18:00 +15°C° 0 mm 4 mps 719 mmHg 68%
    19:00 +14°C° 0.1 mm 3 mps 720 mmHg 73%
    20:00 +14°C° 0.1 mm 2 mps 720 mmHg 78%
    21:00 +13°C° 0.1 mm 1 mps 720 mmHg 84%
    22:00 +13°C° 0 mm 1 mps 720 mmHg 84%
    23:00 +12°C° 0 mm 1 mps 720 mmHg 85%

    25 March, Monday

    Time Temperature Precipitation Wind Pressure Humidity
    00:00 +12°C° 0 mm 1 mps 719 mmHg 85%
    01:00 +12°C° 0 mm 1 mps 719 mmHg 80%
    02:00 +13°C° 0 mm 2 mps 719 mmHg 74%
    03:00 +13°C° 0 mm 2 mps 719 mmHg 69%
    04:00 +13°C° 0 mm 2 mps 719 mmHg 68%
    05:00 +12°C° 0 mm 2 mps 720 mmHg 67%
    06:00 +11°C° 0 mm 3 mps 720 mmHg 65%
    07:00 +13°C° 0 mm 3 mps 720 mmHg 59%
    08:00 +16°C° 0 mm 3 mps 720 mmHg 53%
    09:00 +18°C° 0 mm 3 mps 721 mmHg 46%
    10:00 +20°C° 0 mm 3 mps 721 mmHg 42%
    11:00 +21°C° 0 mm 3 mps 721 mmHg 37%
    12:00 +24°C° 0 mm 3 mps 721 mmHg 32%
    13:00 +23°C° 0 mm 4 mps 720 mmHg 32%
    14:00 +23°C° 0 mm 4 mps 720 mmHg 32%
    15:00 +25°C° 0 mm 5 mps 719 mmHg 31%
    16:00 +22°C° 0 mm 5 mps 719 mmHg 39%
    17:00 +20°C° 0 mm 5 mps 719 mmHg 47%
    18:00 +17°C° 0 mm 6 mps 718 mmHg 55%
    19:00 +17°C° 0 mm 4 mps 718 mmHg 64%
    20:00 +14°C° 0 mm 3 mps 719 mmHg 72%
    21:00 +14°C° 0 mm 2 mps 719 mmHg 80%
    22:00 +13°C° 0 mm 2 mps 719 mmHg 80%
    23:00 +13°C° 0 mm 2 mps 719 mmHg 79%
    Show more